UAL405 KDEN-KLAX

Flight info

Callsign UAL405
Flight time N/A
Altitude 32000
Route BAYLR6 TEHRU JASSE Q90 DNERO ANJLL4
Aircraft B739/M-SDE2E3FGHIRWXY/LB1

Departure

Time N/A
Airport Denver International Airport (KDEN)

Arrival

Time 2026-04-25 20:07
Airport Los Angeles International Airport (KLAX)
Time Latitude Longitude Altitude Speed Heading
2026-04-25 18:40 37.64271 -109.38782 31979 ft 390 kts 235°
2026-04-25 18:40 37.62576 -109.41492 31979 ft 390 kts 235°
2026-04-25 18:40 37.59245 -109.46815 31982 ft 389 kts 236°
2026-04-25 18:41 37.55888 -109.52173 31977 ft 389 kts 235°
2026-04-25 18:41 37.52537 -109.57510 31974 ft 388 kts 235°
2026-04-25 18:42 37.50303 -109.61064 31975 ft 388 kts 236°
2026-04-25 18:42 37.45821 -109.68180 31988 ft 389 kts 235°
2026-04-25 18:43 37.42449 -109.73525 31989 ft 387 kts 234°
2026-04-25 18:43 37.39106 -109.78814 31992 ft 388 kts 235°
2026-04-25 18:44 37.35757 -109.84106 31985 ft 387 kts 235°
2026-04-25 18:44 37.32357 -109.89471 32176 ft 396 kts 235°
2026-04-25 18:45 37.30666 -109.92134 33028 ft 386 kts 235°
2026-04-25 18:45 37.29017 -109.94722 33830 ft 377 kts 235°
2026-04-25 18:45 37.27391 -109.97269 34311 ft 375 kts 235°
2026-04-25 18:45 37.25769 -109.99813 34612 ft 375 kts 235°
2026-04-25 18:46 37.24146 -110.02358 34886 ft 375 kts 235°
2026-04-25 18:46 37.22524 -110.04900 35303 ft 371 kts 236°
2026-04-25 18:46 37.20910 -110.07428 35649 ft 369 kts 236°
2026-04-25 18:46 37.19261 -110.10010 35818 ft 372 kts 236°
2026-04-25 18:47 37.17628 -110.12568 35943 ft 374 kts 235°
2026-04-25 18:47 37.15989 -110.15134 35964 ft 374 kts 235°
2026-04-25 18:47 37.14342 -110.17711 36118 ft 378 kts 235°
2026-04-25 18:47 37.12691 -110.20283 35991 ft 375 kts 235°
2026-04-25 18:48 37.09435 -110.25362 35973 ft 375 kts 235°
2026-04-25 18:48 37.06155 -110.30480 35972 ft 377 kts 235°
2026-04-25 18:49 37.02849 -110.35622 35973 ft 376 kts 235°
2026-04-25 18:49 36.99569 -110.40718 35979 ft 377 kts 235°
2026-04-25 18:50 36.96262 -110.45845 35978 ft 376 kts 235°
2026-04-25 18:50 36.92986 -110.50916 35982 ft 376 kts 235°
2026-04-25 18:51 36.90791 -110.54314 35974 ft 377 kts 235°
2026-04-25 18:51 36.86393 -110.61099 35972 ft 377 kts 235°
2026-04-25 18:52 36.83085 -110.66201 35973 ft 377 kts 234°
2026-04-25 18:52 36.79791 -110.71275 35981 ft 375 kts 234°
2026-04-25 18:53 36.76482 -110.76355 35977 ft 377 kts 234°
2026-04-25 18:53 36.73193 -110.81399 35979 ft 375 kts 234°
2026-04-25 18:54 36.68247 -110.88975 35976 ft 375 kts 234°
2026-04-25 18:55 36.64970 -110.93980 35980 ft 374 kts 234°
2026-04-25 18:55 36.61675 -110.99004 35980 ft 375 kts 234°
2026-04-25 18:56 36.58385 -111.04021 35994 ft 375 kts 234°
2026-04-25 18:56 36.55106 -111.09014 35996 ft 375 kts 234°
2026-04-25 18:57 36.51798 -111.14043 35997 ft 375 kts 234°
2026-04-25 18:57 36.48513 -111.19027 35998 ft 375 kts 234°
2026-04-25 18:58 36.45195 -111.24054 35987 ft 375 kts 234°
2026-04-25 18:58 36.40237 -111.31549 35990 ft 375 kts 234°
2026-04-25 18:59 36.33633 -111.41515 35988 ft 375 kts 234°
2026-04-25 19:00 36.28667 -111.48981 35987 ft 375 kts 234°
2026-04-25 19:01 36.23709 -111.56429 35986 ft 376 kts 234°
2026-04-25 19:01 36.20378 -111.61414 35987 ft 374 kts 234°
2026-04-25 19:02 36.15363 -111.68913 35994 ft 377 kts 234°
2026-04-25 19:03 36.11489 -111.74696 36005 ft 375 kts 233°
2026-04-25 19:03 36.07320 -111.81534 36001 ft 373 kts 242°
2026-04-25 19:04 36.04141 -111.90247 36011 ft 371 kts 249°
2026-04-25 19:05 36.02280 -111.96204 35771 ft 371 kts 249°
2026-04-25 19:05 36.00404 -112.02154 36037 ft 373 kts 249°
2026-04-25 19:06 35.98521 -112.08059 36041 ft 371 kts 249°
2026-04-25 19:06 35.95672 -112.16933 36048 ft 372 kts 249°
2026-04-25 19:07 35.93750 -112.22888 35768 ft 371 kts 249°
2026-04-25 19:07 35.92793 -112.25847 36105 ft 374 kts 249°
2026-04-25 19:08 35.90885 -112.31747 35996 ft 373 kts 249°
2026-04-25 19:08 35.89912 -112.34752 36003 ft 376 kts 248°
2026-04-25 19:09 35.86680 -112.44714 35996 ft 374 kts 248°
2026-04-25 19:10 35.83132 -112.55605 36008 ft 372 kts 249°
2026-04-25 19:10 35.81198 -112.61530 35843 ft 370 kts 249°
2026-04-25 19:10 35.80231 -112.64484 35985 ft 373 kts 249°
2026-04-25 19:11 35.79252 -112.67472 35994 ft 377 kts 248°
2026-04-25 19:11 35.77301 -112.73425 35998 ft 374 kts 248°
2026-04-25 19:12 35.75346 -112.79377 36223 ft 375 kts 248°
2026-04-25 19:12 35.73399 -112.85291 36033 ft 374 kts 248°
2026-04-25 19:12 35.72420 -112.88258 35765 ft 373 kts 248°
2026-04-25 19:13 35.71449 -112.91201 36092 ft 376 kts 248°
2026-04-25 19:13 35.69484 -112.97141 36033 ft 376 kts 248°
2026-04-25 19:14 35.67519 -113.03067 36007 ft 374 kts 248°
2026-04-25 19:14 35.65544 -113.09019 36006 ft 375 kts 248°
2026-04-25 19:15 35.63577 -113.14944 35990 ft 374 kts 248°
2026-04-25 19:15 35.61608 -113.20859 35994 ft 374 kts 248°
2026-04-25 19:16 35.59626 -113.26784 35988 ft 375 kts 248°
2026-04-25 19:16 35.57659 -113.32669 35976 ft 375 kts 248°
2026-04-25 19:17 35.55671 -113.38611 35979 ft 375 kts 248°
2026-04-25 19:17 35.53688 -113.44504 35979 ft 375 kts 248°
2026-04-25 19:18 35.51699 -113.50401 35968 ft 375 kts 248°
2026-04-25 19:18 35.49704 -113.56325 35956 ft 374 kts 248°
2026-04-25 19:19 35.47719 -113.62205 35959 ft 376 kts 248°
2026-04-25 19:19 35.45719 -113.68123 35948 ft 375 kts 247°
2026-04-25 19:20 35.43702 -113.74070 35948 ft 375 kts 248°
2026-04-25 19:20 35.41698 -113.79973 35955 ft 375 kts 248°
2026-04-25 19:21 35.39681 -113.85895 35929 ft 377 kts 247°
2026-04-25 19:21 35.36667 -113.94733 35931 ft 376 kts 247°
2026-04-25 19:22 35.34644 -114.00653 35915 ft 376 kts 247°
2026-04-25 19:23 35.31608 -114.09502 35910 ft 378 kts 247°
2026-04-25 19:23 35.28567 -114.18341 35903 ft 376 kts 247°
2026-04-25 19:24 35.26530 -114.24247 35896 ft 376 kts 247°
2026-04-25 19:25 35.22457 -114.36035 35864 ft 377 kts 247°
2026-04-25 19:25 35.20419 -114.41922 35865 ft 377 kts 247°
2026-04-25 19:26 35.18375 -114.47810 35850 ft 377 kts 247°
2026-04-25 19:26 35.16327 -114.53690 35847 ft 376 kts 247°
2026-04-25 19:27 35.14956 -114.57627 35850 ft 377 kts 246°
2026-04-25 19:27 35.12215 -114.65476 35871 ft 376 kts 246°
2026-04-25 19:28 35.10155 -114.71404 35890 ft 376 kts 246°
2026-04-25 19:28 35.08128 -114.77243 35895 ft 376 kts 246°
2026-04-25 19:29 35.06076 -114.83131 35890 ft 376 kts 246°
2026-04-25 19:29 35.04035 -114.88963 35884 ft 376 kts 246°
2026-04-25 19:30 35.01818 -114.94754 35887 ft 375 kts 242°
2026-04-25 19:30 34.99345 -115.00336 35878 ft 375 kts 242°
2026-04-25 19:31 34.96863 -115.05903 35869 ft 375 kts 242°
2026-04-25 19:31 34.94395 -115.11523 35867 ft 375 kts 242°
2026-04-25 19:32 34.91950 -115.17120 35867 ft 375 kts 242°
2026-04-25 19:32 34.90315 -115.20873 35868 ft 376 kts 242°
2026-04-25 19:33 34.87030 -115.28407 35867 ft 376 kts 242°
2026-04-25 19:33 34.84583 -115.34006 35873 ft 376 kts 242°
2026-04-25 19:34 34.82116 -115.39645 35872 ft 376 kts 243°
2026-04-25 19:34 34.79666 -115.45232 35878 ft 376 kts 242°
2026-04-25 19:35 34.77363 -115.50964 35880 ft 378 kts 245°
2026-04-25 19:35 34.75268 -115.56816 35885 ft 376 kts 246°
2026-04-25 19:36 34.73181 -115.62631 35731 ft 379 kts 246°
2026-04-25 19:36 34.72108 -115.65583 35472 ft 380 kts 245°
2026-04-25 19:36 34.71024 -115.68543 35210 ft 379 kts 245°
2026-04-25 19:37 34.69953 -115.71452 34954 ft 380 kts 245°
2026-04-25 19:37 34.68866 -115.74399 34691 ft 382 kts 245°
2026-04-25 19:37 34.67773 -115.77357 34428 ft 383 kts 245°
2026-04-25 19:37 34.66677 -115.80318 34167 ft 383 kts 245°
2026-04-25 19:38 34.65592 -115.83244 33913 ft 386 kts 245°
2026-04-25 19:38 34.64476 -115.86250 33655 ft 388 kts 245°
2026-04-25 19:38 34.63376 -115.89214 33403 ft 389 kts 245°
2026-04-25 19:38 34.62265 -115.92213 33147 ft 389 kts 245°
2026-04-25 19:39 34.61151 -115.95234 32894 ft 391 kts 245°
2026-04-25 19:39 34.60038 -115.98258 32641 ft 393 kts 245°
2026-04-25 19:39 34.58932 -116.01257 32389 ft 394 kts 245°
2026-04-25 19:39 34.57812 -116.04290 32136 ft 395 kts 245°
2026-04-25 19:40 34.56680 -116.07359 31879 ft 396 kts 245°
2026-04-25 19:40 34.55553 -116.10407 31628 ft 398 kts 245°
2026-04-25 19:40 34.54424 -116.13456 31373 ft 399 kts 246°
2026-04-25 19:40 34.53294 -116.16502 31115 ft 397 kts 245°
2026-04-25 19:41 34.52166 -116.19536 30862 ft 395 kts 245°
2026-04-25 19:41 34.51031 -116.22581 30605 ft 396 kts 245°
2026-04-25 19:41 34.49902 -116.25616 30352 ft 393 kts 245°
2026-04-25 19:41 34.49529 -116.26620 30268 ft 392 kts 245°
2026-04-25 19:42 34.47673 -116.31615 29918 ft 389 kts 245°
2026-04-25 19:42 34.46556 -116.34617 29902 ft 389 kts 246°
2026-04-25 19:42 34.44318 -116.40624 29904 ft 392 kts 245°
2026-04-25 19:43 34.42079 -116.46616 29909 ft 392 kts 245°
2026-04-25 19:43 34.39759 -116.52560 29909 ft 392 kts 244°
2026-04-25 19:44 34.37299 -116.58480 29905 ft 392 kts 243°
2026-04-25 19:44 34.36073 -116.61409 29690 ft 393 kts 243°
2026-04-25 19:44 34.34848 -116.64342 29425 ft 389 kts 243°
2026-04-25 19:45 34.33636 -116.67252 29162 ft 385 kts 243°
2026-04-25 19:45 34.32443 -116.70147 28896 ft 378 kts 243°
2026-04-25 19:45 34.31297 -116.72978 28633 ft 371 kts 243°
2026-04-25 19:45 34.30166 -116.75800 28289 ft 372 kts 244°
2026-04-25 19:46 34.29043 -116.78606 27788 ft 372 kts 243°
2026-04-25 19:46 34.27914 -116.81421 27208 ft 370 kts 244°
2026-04-25 19:46 34.26799 -116.84197 26620 ft 368 kts 243°
2026-04-25 19:46 34.25692 -116.86951 26047 ft 366 kts 244°
2026-04-25 19:47 34.24590 -116.89683 25472 ft 364 kts 243°
2026-04-25 19:47 34.23481 -116.92426 24892 ft 362 kts 243°
2026-04-25 19:47 34.22374 -116.95164 24328 ft 360 kts 243°
2026-04-25 19:47 34.21302 -116.97867 23760 ft 358 kts 245°
2026-04-25 19:48 34.20380 -117.00641 23211 ft 356 kts 249°
2026-04-25 19:48 34.19592 -117.03464 22640 ft 355 kts 251°
2026-04-25 19:48 34.18853 -117.06307 22076 ft 354 kts 251°
2026-04-25 19:48 34.18127 -117.09116 21503 ft 352 kts 251°
2026-04-25 19:49 34.17387 -117.11951 20920 ft 351 kts 251°
2026-04-25 19:49 34.17139 -117.12889 20740 ft 350 kts 251°
2026-04-25 19:49 34.15904 -117.17509 19785 ft 347 kts 250°
2026-04-25 19:49 34.15156 -117.20258 19219 ft 345 kts 250°
2026-04-25 19:50 34.13698 -117.25576 18575 ft 330 kts 250°
2026-04-25 19:50 34.12973 -117.28207 18060 ft 328 kts 250°
2026-04-25 19:50 34.12262 -117.30788 17577 ft 325 kts 250°
2026-04-25 19:51 34.11552 -117.33361 17114 ft 322 kts 250°
2026-04-25 19:51 34.10846 -117.35919 16604 ft 321 kts 250°
2026-04-25 19:51 34.10161 -117.38443 16164 ft 317 kts 251°
2026-04-25 19:51 34.09518 -117.40971 15664 ft 316 kts 252°
2026-04-25 19:52 34.08899 -117.43495 15188 ft 314 kts 252°
2026-04-25 19:52 34.08281 -117.46024 14716 ft 311 kts 252°
2026-04-25 19:52 34.07659 -117.48541 14009 ft 317 kts 252°
2026-04-25 19:52 34.06977 -117.51048 13441 ft 316 kts 249°
2026-04-25 19:53 34.06148 -117.53497 12779 ft 313 kts 246°
2026-04-25 19:53 34.05271 -117.55841 12227 ft 307 kts 245°
2026-04-25 19:53 34.04396 -117.58157 11741 ft 299 kts 246°
2026-04-25 19:53 34.03558 -117.60417 11291 ft 293 kts 246°
2026-04-25 19:54 34.02740 -117.62661 10829 ft 293 kts 246°
2026-04-25 19:54 34.01925 -117.64916 10427 ft 290 kts 247°
2026-04-25 19:54 34.01134 -117.67123 10228 ft 280 kts 247°
2026-04-25 19:54 34.00898 -117.67853 10192 ft 276 kts 250°
2026-04-25 19:55 34.00287 -117.71510 9940 ft 263 kts 262°
2026-04-25 19:55 34.00108 -117.73659 9783 ft 256 kts 262°
2026-04-25 19:55 33.99919 -117.75779 9743 ft 252 kts 262°
2026-04-25 19:55 33.99717 -117.77890 9755 ft 254 kts 262°
2026-04-25 19:56 33.99511 -117.80016 9764 ft 255 kts 262°
2026-04-25 19:56 33.99303 -117.82149 9758 ft 252 kts 262°
2026-04-25 19:56 33.99087 -117.84274 8729 ft 276 kts 261°
2026-04-25 19:56 33.98836 -117.86571 8060 ft 278 kts 261°
2026-04-25 19:57 33.98583 -117.88870 7492 ft 280 kts 262°
2026-04-25 19:57 33.98312 -117.91187 6938 ft 280 kts 262°
2026-04-25 19:57 33.98098 -117.93510 6503 ft 275 kts 263°
2026-04-25 19:57 33.97904 -117.95772 6197 ft 268 kts 263°
2026-04-25 19:58 33.97703 -117.97974 5809 ft 264 kts 263°
2026-04-25 19:58 33.97395 -118.00147 5225 ft 266 kts 250°
2026-04-25 19:58 33.96440 -118.01971 4990 ft 254 kts 221°
2026-04-25 19:58 33.94896 -118.02967 5060 ft 250 kts 196°
2026-04-25 19:59 33.93131 -118.03437 4509 ft 283 kts 189°
2026-04-25 19:59 33.91176 -118.03702 4164 ft 281 kts 188°
2026-04-25 19:59 33.89283 -118.04079 4061 ft 272 kts 191°
2026-04-25 19:59 33.87435 -118.04497 3873 ft 264 kts 191°
2026-04-25 20:00 33.85658 -118.04926 3685 ft 256 kts 195°
2026-04-25 20:00 33.85100 -118.05148 3626 ft 253 kts 204°
2026-04-25 20:00 33.83438 -118.07799 3570 ft 250 kts 264°
2026-04-25 20:00 33.83812 -118.09815 3569 ft 255 kts 301°
2026-04-25 20:01 33.86789 -118.11385 3572 ft 234 kts
2026-04-25 20:01 33.88372 -118.11031 3543 ft 231 kts 11°
2026-04-25 20:01 33.89943 -118.10640 3374 ft 231 kts 11°
2026-04-25 20:02 33.91533 -118.10580 3198 ft 228 kts 343°
2026-04-25 20:02 33.92911 -118.11471 3033 ft 225 kts 322°
2026-04-25 20:02 33.94142 -118.12638 2835 ft 224 kts 313°
2026-04-25 20:02 33.94998 -118.14187 2638 ft 221 kts 293°
2026-04-25 20:03 33.95607 -118.15891 2438 ft 220 kts 289°
2026-04-25 20:03 33.95868 -118.17689 2242 ft 218 kts 266°
2026-04-25 20:03 33.95683 -118.19473 2048 ft 217 kts 258°
2026-04-25 20:03 33.95447 -118.21269 1969 ft 213 kts 260°
2026-04-25 20:04 33.95268 -118.23040 1960 ft 211 kts 262°
2026-04-25 20:04 33.95108 -118.24757 1960 ft 204 kts 261°
2026-04-25 20:04 33.94933 -118.26484 1962 ft 205 kts 261°
2026-04-25 20:04 33.94754 -118.28195 1811 ft 208 kts 261°
2026-04-25 20:05 33.94583 -118.29904 1480 ft 198 kts 262°
2026-04-25 20:05 33.94431 -118.31482 1244 ft 182 kts 261°
2026-04-25 20:05 33.94279 -118.32934 994 ft 168 kts 260°
2026-04-25 20:05 33.94137 -118.34285 780 ft 157 kts 261°
2026-04-25 20:06 33.94011 -118.35569 575 ft 152 kts 261°
2026-04-25 20:06 33.93884 -118.36832 375 ft 149 kts 259°
2026-04-25 20:06 33.93762 -118.38057 174 ft 148 kts 259°
2026-04-25 20:06 33.93633 -118.39234 109 ft 122 kts 259°
2026-04-25 20:07 33.93562 -118.39995 118 ft 62 kts 263°
2026-04-25 20:07 33.93539 -118.40398 123 ft 33 kts 273°
2026-04-25 20:07 33.93579 -118.40607 125 ft 20 kts 291°
2026-04-25 20:07 33.93597 -118.40700 126 ft 3 kts 272°
2026-04-25 20:08 33.93596 -118.40723 126 ft 5 kts 264°
2026-04-25 20:08 33.93592 -118.40794 127 ft 12 kts 275°
2026-04-25 20:08 33.93608 -118.40848 127 ft 0 kts 296°
2026-04-25 20:10 33.93610 -118.40852 127 ft 2 kts 296°
2026-04-25 20:10 33.93654 -118.40892 127 ft 15 kts 345°
2026-04-25 20:10 33.93782 -118.40913 127 ft 19 kts 353°
2026-04-25 20:10 33.93876 -118.40827 126 ft 23 kts 81°
2026-04-25 20:11 33.93897 -118.40622 125 ft 25 kts 84°
2026-04-25 20:11 33.93919 -118.40406 123 ft 27 kts 82°
2026-04-25 20:11 33.93943 -118.40173 120 ft 29 kts 83°
2026-04-25 20:11 33.93966 -118.39950 117 ft 25 kts 84°
2026-04-25 20:12 33.93991 -118.39837 116 ft 11 kts 34°
2026-04-25 20:12 33.94067 -118.39829 116 ft 10 kts
2026-04-25 20:12 33.94133 -118.39833 116 ft 8 kts 356°
2026-04-25 20:12 33.94151 -118.39829 116 ft 7 kts 34°
2026-04-25 20:13 33.94166 -118.39787 115 ft 0 kts 82°
2026-04-25 20:13 33.94167 -118.39780 115 ft 0 kts 82°
2026-04-25 20:13 33.94167 -118.39779 115 ft 0 kts 82°
2026-04-25 20:19 33.94166 -118.39788 116 ft 2 kts 82°
2026-04-25 20:19 33.94163 -118.39806 116 ft 2 kts 74°
2026-04-25 20:20 33.94156 -118.39822 116 ft 2 kts 43°
2026-04-25 20:20 33.94143 -118.39831 116 ft 2 kts 18°
2026-04-25 20:20 33.94128 -118.39833 116 ft 2 kts 352°
2026-04-25 20:20 33.94114 -118.39830 116 ft 2 kts 353°
2026-04-25 20:21 33.94099 -118.39828 116 ft 2 kts 354°
2026-04-25 20:21 33.94083 -118.39826 116 ft 2 kts 358°
2026-04-25 20:21 33.94069 -118.39826 116 ft 2 kts
2026-04-25 20:21 33.94054 -118.39829 116 ft 1 kts 12°
2026-04-25 20:22 33.94040 -118.39828 116 ft 2 kts 351°
2026-04-25 20:22 33.94035 -118.39827 116 ft 2 kts 353°
2026-04-25 20:22 33.94011 -118.39825 116 ft 1 kts 354°
2026-04-25 20:22 33.93998 -118.39828 116 ft 2 kts 30°
2026-04-25 20:23 33.93986 -118.39838 116 ft 2 kts 40°
2026-04-25 20:23 33.93976 -118.39851 116 ft 1 kts 59°
2026-04-25 20:23 33.93974 -118.39855 116 ft 0 kts 63°
2026-04-25 20:23 33.93978 -118.39832 116 ft 5 kts 84°
2026-04-25 20:24 33.93984 -118.39777 115 ft 4 kts 83°
2026-04-25 20:24 33.93987 -118.39748 115 ft 5 kts 83°
2026-04-25 20:24 33.93993 -118.39688 114 ft 7 kts 83°
2026-04-25 20:24 33.93999 -118.39631 113 ft 4 kts 83°
2026-04-25 20:25 33.94002 -118.39603 113 ft 5 kts 83°
2026-04-25 20:25 33.94008 -118.39542 112 ft 7 kts 83°
2026-04-25 20:25 33.94015 -118.39477 111 ft 7 kts 83°
2026-04-25 20:25 33.94019 -118.39439 111 ft 2 kts 83°
2026-04-25 20:26 33.94023 -118.39395 110 ft 7 kts 83°
2026-04-25 20:26 33.94030 -118.39332 110 ft 7 kts 83°
2026-04-25 20:26 33.94035 -118.39283 109 ft 3 kts 83°
2026-04-25 20:26 33.94038 -118.39249 109 ft 7 kts 83°
2026-04-25 20:27 33.94044 -118.39185 108 ft 7 kts 83°
2026-04-25 20:27 33.94051 -118.39121 108 ft 7 kts 83°
2026-04-25 20:27 33.94056 -118.39062 107 ft 5 kts 83°
2026-04-25 20:27 33.94059 -118.39035 107 ft 3 kts 89°
2026-04-25 20:28 33.94060 -118.38979 107 ft 7 kts 89°
2026-04-25 20:28 33.94060 -118.38937 107 ft 2 kts 89°
2026-04-25 20:28 33.94064 -118.38899 107 ft 7 kts 83°
2026-04-25 20:28 33.94072 -118.38834 106 ft 7 kts 83°
2026-04-25 20:29 33.94078 -118.38781 106 ft 4 kts 83°
2026-04-25 20:29 33.94080 -118.38751 106 ft 4 kts 84°
2026-04-25 20:29 33.94093 -118.38714 106 ft 5 kts 51°
2026-04-25 20:29 33.94122 -118.38692 105 ft 4 kts 17°
2026-04-25 20:30 33.94151 -118.38693 105 ft 4 kts 339°
2026-04-25 20:30 33.94186 -118.38719 106 ft 6 kts 328°
2026-04-25 20:30 33.94209 -118.38741 106 ft 3 kts 304°
2026-04-25 20:30 33.94214 -118.38773 106 ft 5 kts 266°
2026-04-25 20:31 33.94212 -118.38820 106 ft 4 kts 259°
2026-04-25 20:31 33.94195 -118.38854 106 ft 4 kts 223°
2026-04-25 20:31 33.94164 -118.38883 106 ft 4 kts 219°
2026-04-25 20:31 33.94154 -118.38893 107 ft 0 kts 219°
2026-04-25 20:32 33.94153 -118.38893 107 ft 0 kts 219°